Content
SEND FEEDBACK

Daily
Averages
Monthly
Summary
United States of America

SHELBURNE FALLS, MASSACHUSETTS


Home > North America > United States > Massachusetts
Elevation: 400 feet     Latitude: 42 36N     Longitude: 072 44W

WEATHER
 
SELECT A DAY
Number of Records: 214,952;   Date Range: 7/1/96 - 9/30/14
 
SHARE

PRINT THIS DATA

[ ← Previous Day ]
WEATHER ALMANAC - JANUARY 11, 2014
[ Next Day → ]
[ °C ]   °F
Weather ElementAverageHighLow
Temperature47.1 °F57 °F (6:41 pm)30.9 °F (12:09 am)
Dewpoint45.9 °F55 °F (3:17 pm)30 °F (12:09 am)
Humidity95.8 %100 % (1:52 am)86 % (11:20 pm)
Barometer29.66 in30.23 in (12:09 am)29.26 in (9:43 pm)
Wind Speed8.4 mph16.1 mph (3:10 pm)
Wind Gust33.4 mph (11:52 pm)
Weather ElementAverage
Visibility4.5 mi
Wind DirectionESE (124.1 °)

Weather ElementTotal
Precipitation1.72 in
Heating Degree Days21.1 (Base 65)
Averaged from 56 records on January 11, 2014
WEATHER CONDITIONS BREAKOUT
WIND DIRECTION BREAKOUT
WEATHER BY HOUR - JANUARY 11, 2014
[ °C ]   °F
Local TimeTemperatureDewpointHumidityBarometerVisibilityWind DirectionWind SpeedGust SpeedPrecipitationEventsConditions
12:09 AM30.9 °F30.0 °F96 %30.23 in0.8 miCalmOvercast
12:52 AM30.9 °F30.0 °F96 %30.23 in0.5 miCalmFogLight Freezing Fog
1:52 AM30.9 °F30.9 °F100 %30.22 in0.8 miCalm0.01 inMist
2:41 AM32.0 °F30.9 °F96 %30.17 in0.8 miCalm0.01 inMist
2:52 AM32.0 °F30.9 °F96 %30.18 in0.8 miCalm0.02 inMist
3:24 AM32.0 °F30.9 °F96 %30.13 in0.8 miCalm0.01 inMist
3:30 AM32.0 °F30.9 °F96 %30.13 in1.0 miCalm0.01 inMist
3:37 AM32.0 °F30.9 °F96 %30.13 in1.2 miCalm0.01 inOvercast
3:52 AM32.0 °F32.0 °F100 %30.13 in1.0 miCalm0.01 inOvercast
4:00 AM32.0 °F32.0 °F100 %30.11 in0.8 miCalmOvercast
4:52 AM32.0 °F30.9 °F96 %30.09 in0.8 miCalm0.01 inOvercast
5:52 AM32.0 °F30.9 °F96 %30.06 in0.5 miCalm0.01 inFogFog
6:52 AM32.0 °F32.0 °F100 %30.01 in0.5 miCalmFogFog
7:52 AM32.0 °F32.0 °F100 %29.95 in0.2 miCalm0.02 inFogFog
8:52 AM33.1 °F32.0 °F96 %29.91 in0.8 miCalm0.08 inRainLight Rain
9:52 AM33.1 °F32.0 °F96 %29.88 in0.5 miCalm0.03 inFog-RainLight Rain
10:52 AM34.0 °F34.0 °F100 %29.82 in0.2 miCalm0.05 inFog-RainLight Rain
11:01 AM35.1 °F35.1 °F100 %29.79 in0.2 miVariable3.5 mph0.00 inFog-RainLight Rain
11:24 AM50.0 °F50.0 °F100 %29.76 in1.8 miSouth (180°)11.5 mph0.01 inRainLight Rain
11:31 AM50.0 °F50.0 °F100 %29.75 in2.5 miSouth (170°)11.5 mph0.01 inRainLight Rain
11:40 AM51.1 °F50.0 °F96 %29.74 in3.0 miSouth (170°)12.7 mph23.0 mph0.01 inRainLight Rain
11:50 AM51.8 °F51.8 °F100 %29.72 in2.5 miSouth (170°)10.4 mph0.02 inRainLight Rain
11:52 AM51.1 °F51.1 °F100 %29.73 in3.0 miSouth (170°)11.5 mph0.02 inRainLight Rain
12:52 PM54.0 °F53.1 °F97 %29.65 in4.0 miSouth (170°)10.4 mph21.9 mph0.02 inRainLight Rain
1:09 PM53.1 °F53.1 °F100 %29.61 in9.0 miSouth (180°)11.5 mph0.00 inRainLight Rain
1:28 PM54.0 °F53.1 °F97 %29.59 in2.0 miSouth (170°)12.7 mph0.07 inRainRain
1:39 PM54.0 °F53.1 °F97 %29.58 in6.0 miSouth (180°)12.7 mph0.08 inRainLight Rain
1:45 PM54.0 °F53.1 °F97 %29.58 in5.0 miSouth (180°)13.8 mph0.08 inRainLight Rain
1:52 PM54.0 °F53.1 °F97 %29.58 in5.0 miSouth (170°)13.8 mph0.08 inRainLight Rain
2:06 PM54.0 °F53.1 °F97 %29.56 in5.0 miSouth (180°)12.7 mph20.7 mph0.00 inRainLight Rain
2:23 PM54.0 °F53.1 °F97 %29.52 in6.0 miSouth (180°)13.8 mph24.2 mph0.00 inRainLight Rain
2:34 PM55.0 °F54.0 °F96 %29.51 in5.0 miSouth (180°)12.7 mph0.01 inRainLight Rain
2:49 PM55.4 °F53.6 °F94 %29.49 in2.0 miSouth (180°)12.7 mph24.2 mph0.01 inRainLight Rain
2:52 PM55.0 °F54.0 °F96 %29.49 in2.5 miSouth (170°)13.8 mph20.7 mph0.01 inRainLight Rain
3:01 PM55.9 °F54.0 °F93 %29.49 in1.2 miSouth (190°)13.8 mph0.09 inRainHeavy Rain
3:10 PM55.9 °F54.0 °F93 %29.49 in2.0 miSouth (180°)16.1 mph0.10 inRainLight Rain
3:17 PM55.9 °F55.0 °F97 %29.48 in10.0 miSouth (170°)16.1 mph0.10 inRainLight Rain
3:28 PM55.9 °F55.0 °F97 %29.47 in10.0 miSouth (180°)12.7 mph25.3 mph0.10 inOvercast
3:52 PM55.9 °F54.0 °F93 %29.48 in10.0 miSouth (190°)12.7 mph0.10 inOvercast
4:20 PM55.9 °F55.0 °F97 %29.44 in10.0 miSouth (180°)10.4 mph0.00 inOvercast
4:52 PM55.9 °F55.0 °F97 %29.42 in6.0 miSouth (180°)13.8 mph0.00 inRainLight Rain
5:11 PM55.9 °F55.0 °F97 %29.39 in5.0 miSouth (170°)13.8 mph0.01 inRainRain
5:52 PM55.9 °F54.0 °F93 %29.36 in10.0 miSouth (180°)13.8 mph0.05 inOvercast
6:17 PM55.9 °F55.0 °F97 %29.34 in6.0 miSouth (190°)11.5 mph0.03 inRainLight Rain
6:41 PM57.0 °F54.0 °F89 %29.34 in10.0 miSSW (200°)12.7 mph0.03 inOvercast
6:52 PM57.0 °F55.0 °F93 %29.35 in10.0 miSSW (210°)9.2 mph0.03 inOvercast
7:19 PM57.0 °F54.0 °F89 %29.35 in4.0 miSSW (200°)9.2 mph0.06 inRainRain
7:52 PM55.0 °F53.1 °F93 %29.36 in7.0 miSouth (180°)6.9 mph0.10 inRainLight Rain
8:52 PM54.0 °F52.0 °F93 %29.33 in6.0 miSouth (170°)8.1 mph0.10 inRainLight Rain
9:43 PM53.1 °F52.0 °F96 %29.26 in10.0 miSouth (170°)8.1 mph0.05 inRainLight Rain
9:52 PM52.0 °F51.1 °F97 %29.26 in10.0 miSSE (160°)6.9 mph0.05 inRainLight Rain
10:08 PM51.1 °F50.0 °F96 %29.28 in10.0 miSSW (210°)12.7 mph0.00 inOvercast
10:52 PM52.0 °F48.9 °F89 %29.29 in10.0 miSouth (190°)12.7 mph0.00 inScattered Clouds
11:20 PM53.1 °F48.9 °F86 %29.28 in10.0 miSSW (200°)15.0 mph23.0 mphOvercast
11:52 PM52.0 °F48.0 °F86 %29.31 in10.0 miSW (230°)16.1 mph33.4 mph0.00 inRainLight Rain
11:59 PM52.0 °F48.0 °F86 %29.29 in10.0 miSW (220°)13.8 mph26.5 mph0.01 inRainLight Rain
Hourly data recorded from KORE, located miles away from Shelburne Falls, Massachusetts







STORIES FROM OUR PARTNERS